sat.trackr.live / text

‹ back to catalog

STARLINK-30461

NORAD 57933 · 2023-147W

PAYLOAD ACTIVE UNKNOWN

§ Identity

Operator
Country
US
Launch date
2023-09-24
Launch site
AFETR
Launch vehicle
Mass (kg)
RCS (m²)

Purposes: comms

External: N2YO · Heavens-Above · Gunter

§ Orbital elements

Epoch: 2026-09-20T19:26:52.290816Z

Period
94.27 min
Inclination
43.0013°
Eccentricity
0.0001412
Mean motion
15.27569744 rev/d
Perigee alt
482.1 km
Apogee alt
484.0 km
Semi-major
6,861.2 km
B*
-5.0267e-5
RAAN
302.8908°
Arg perigee
274.3627°
Mean anomaly
85.7063°
Rev number
16,644

§ Raw data

STARLINK-304611 57933U 23147W   26263.81032744 -.00001645  00000+0 -50267-4 0  99932 57933  43.0013 302.8908 0001412 274.3627  85.7063 15.27569744166449

JSON: /api/v1/satellites/57933 · /tle

For live sub-satellite position, see the globe view (requires WebGL).

§ Visibility from observer

Set your observer location to see the next 7 days of passes ≥ 10°. The values pass through the URL so the page stays shareable.

No JS? Fill the form by hand. The geolocation button needs JavaScript.